Location: *
(28.3744°N, 81.5492°W)
Time: 03:30:13
(UTC+00:00)

Cosmos 909 Rocket - Pass Details

Date: 15 June 2025
Orbit: 986 x 2093 km, 65.9° (Epoch: 11 July)

Event Time Altitude Azimuth Distance (km) Brightness Sun altitude
Rises 03:56:19 0° 336° (NNW) 4,278 8.4 -33.9°
Reaches altitude 10° 03:59:21 10° 339° (NNW) 3,165 7.5 -34.2°
Enters shadow 04:05:35 62° 11° (N) 1,205 4.5 -34.7°
